Flag for U.S.A. Weather past 2 weeks in Redmond, Washington, U.S.A.

Now
68 °F

Sunny.


Feels Like: 68 °F
Forecast: 61 / 69 °F
Wind: 3 mph from North

Location: Seattle Boeing Field

Current Time: Sep 17, 2014 at 7:50:31 PM

Latest Report: Sep 17, 2014 at 6:53 PM


Visibility: 10 mi

Pressure: 29.71 "Hg

Humidity: 61%

Dew point: 54 °F

Location of RedmondLocation

Historic Weather in Redmond — Graph

°F

Redmond temperature yesterday

Maximum temperature yesterday: 75 °F (at 3:53 PM)
Minimum temperature yesterday: 60 °F (at 3:53 AM)
Average temperature yesterday: 67 °F

Past Weeks' High & Low Weather Summary

 TemperatureHumidityPressure
High87 °F (Sep 6, 4:53 PM)88% (Sep 4, 8:00 AM)30.30 "Hg (Sep 4, 8:00 AM)
Low52 °F (Sep 14, 6:53 AM)17% (Sep 11, 4:53 PM)29.70 "Hg (Sep 17, 3:53 PM)
Average67 °F55%29.98 "Hg
* Reported Sep 2 5:53 PM — Sep 17 5:53 PM, Redmond, Weather by CustomWeather, © 2014

Note: Actual official high and low records may vary slightly from our data, if they occured in-between our weather recording intervals... More about our weather records

Advertising

Redmond weather history for previous 24 hours

 ConditionsComfort  
Time TempWeatherWind HumidityBarometerVisibility
5:53 PM
Sep 17
68 °FMore clouds than sun.5 mph61%29.71 "Hg10 mi
4:53 PM70 °FMore clouds than sun.8 mph59%29.72 "Hg10 mi
3:53 PM70 °FPartly sunny.9 mph59%29.70 "Hg10 mi
2:53 PM72 °FPartly sunny.7 mph55%29.71 "Hg10 mi
1:53 PM71 °FBroken clouds.6 mph59%29.73 "Hg10 mi
12:53 PM70 °FOvercast.3 mph66%29.75 "Hg10 mi
11:53 AM69 °FOvercast.No wind70%29.76 "Hg10 mi
10:53 AM67 °FScattered clouds.No wind68%29.77 "Hg10 mi
9:53 AM66 °FOvercast.3 mph70%29.78 "Hg10 mi
8:53 AM64 °FPartly sunny.No wind73%29.77 "Hg10 mi
7:53 AM63 °FBroken clouds.No wind73%29.78 "Hg10 mi
6:53 AM63 °FPartly cloudy.No wind73%29.78 "Hg10 mi
5:53 AM63 °FPassing clouds.No wind75%29.78 "Hg10 mi
4:53 AM64 °FPassing clouds.5 mph73%29.79 "Hg10 mi
3:53 AM64 °FPassing clouds.3 mph70%29.80 "Hg10 mi
2:53 AM65 °FPassing clouds.No wind70%29.83 "Hg10 mi
1:53 AM65 °FPassing clouds.No wind70%29.84 "Hg10 mi
12:53 AM66 °FClear.3 mph68%29.85 "Hg10 mi
11:53 PM
Sep 16
66 °FClear.7 mph68%29.88 "Hg10 mi
10:53 PM66 °FClear.7 mph65%29.87 "Hg10 mi
9:53 PM66 °FPassing clouds.5 mph65%29.87 "Hg10 mi
8:53 PM68 °FPassing clouds.No wind61%29.87 "Hg10 mi
7:53 PM69 °FSunny.3 mph59%29.87 "Hg10 mi
Weather by CustomWeather, © 2014

See weather overviewHow to use our weather pages